This demonstration page uses our WeatherBlox Daily Observations layout. Learn more.

Left ArrowRight Arrow

39.01783, -85.05884

Hourly Observations for February 11, 2020

Temp ( °F °C ) Dew Point ( °F °C ) Humidity (%) Winds ( mph kmh ) Pressure ( in mb ) Visibility ( mi km ) Precip ( " mm )
12:52 am 00:52 Cloudy with Mist and Fog 35 1.7 34 1.1 96 96 NNW 12 19 30.08 1019 0.75 1.207005 0 0
1:42 am 01:42 Cloudy with Mist and Fog 35 1.7 33 0.6 93 93 NNW 13 20 30.12 1020 2.5 4.02335 0 0
1:52 am 01:52 Cloudy with Mist and Fog 35 1.7 33 0.6 93 93 NNW 12 19 30.09 1019 2.5 4.02335 0 0
2:09 am 02:09 Cloudy with Mist and Fog 35 1.7 33 0.6 93 93 N 10 17 30.11 1020 2.5 4.02335 0 0
2:52 am 02:52 Cloudy with Mist and Fog 35 1.7 33 0.6 93 93 NW 7 11 30.09 1019 2.5 4.02335 0 0
3:52 am 03:52 Cloudy with Mist and Fog 34 1.1 32 0 92 92 N 12 19 30.04 1017 2.5 4.02335 0 0
4:45 am 04:45 Cloudy with Mist and Fog 34 1.1 32 0 92 92 N 6 9 30.09 1019 2.5 4.02335 0.001 0.001
4:52 am 04:52 Cloudy with Light Rain 34 1.1 32 0 92 92 NNW 9 15 30.07 1018 2.5 4.02335 0.001 0.001
5:00 am 05:00 Cloudy with Mist and Fog 34 1.1 32 0 92 92 VRB 5 7 30.1 1019 2.5 4.02335 0.001 0.001
5:20 am 05:20 Cloudy with Mist and Fog 34 1.1 31 -0.6 89 89 NNW 7 11 30.11 1020 2.5 4.02335 0.001 0.001
5:31 am 05:31 Cloudy with Light Snow 34 1.1 31 -0.6 89 89 NNW 8 13 30.11 1020 2.5 4.02335 0.01 0.254
5:44 am 05:44 Cloudy with Mist and Fog 33 0.6 31 -0.6 92 92 NNW 10 17 30.11 1020 2.5 4.02335 0.02 0.508
5:52 am 05:52 Cloudy with Mist and Fog 33 0.6 31 -0.6 92 92 N 8 13 30.08 1019 2.5 4.02335 0.02 0.508
6:06 am 06:06 Cloudy with Mist and Fog 33 0.6 30 -1.1 89 89 VRB 7 11 30.11 1020 2.5 4.02335 0.01 0.254
6:44 am 06:44 Cloudy with Light Rain/Snow 33 0.6 30 -1.1 89 89 N 8 13 30.1 1019 2.5 4.02335 0.04 1.016
6:52 am 06:52 Cloudy with Light Rain/Snow 33 0.6 30 -1.1 89 89 N 8 13 30.07 1018 2.5 4.02335 0.04 1.016
7:01 am 07:01 Cloudy with Light Rain/Snow 33 0.6 30 -1.1 89 89 NNW 8 13 30.11 1020 4 6.43736 0.01 0.254
7:28 am 07:28 Cloudy with Light Rain/Snow 33 0.6 30 -1.1 89 89 N 8 13 30.11 1020 4 6.43736 0.01 0.254
7:52 am 07:52 Cloudy with Mist and Fog 33 0.6 30 -1.1 89 89 N 10 17 30.08 1019 4 6.43736 0.01 0.254
8:12 am 08:12 Cloudy with Mist and Fog 33 0.6 30 -1.1 89 89 N 8 13 30.1 1019 4 6.43736 0.001 0.001
8:52 am 08:52 Cloudy with Mist and Fog 33 0.6 30 -1.1 89 89 N 7 11 30.07 1018 4 6.43736 0.001 0.001
9:03 am 09:03 Cloudy with Mist and Fog 33 0.6 31 -0.6 92 92 N 6 9 30.11 1020 3 4.82802 0 0
9:52 am 09:52 Cloudy with Mist and Fog 34 1.1 31 -0.6 89 89 N 5 7 30.08 1019 4 6.43736 0 0
10:52 am 10:52 Cloudy with Light Snow 35 1.7 30 -1.1 82 82 NNW 5 7 30.09 1019 3 4.82802 0.001 0.001
11:16 am 11:16 Cloudy with Mist and Fog 36 2.2 31 -0.6 82 82 NNW 7 11 30.13 1020 5 8.0467 0.001 0.001
11:23 am 11:23 Cloudy with Mist and Fog 36 2.2 31 -0.6 82 82 NNW 8 13 30.13 1020 5 8.0467 0.001 0.001
11:43 am 11:43 Cloudy with Mist and Fog 37 2.8 32 0 82 82 NW 5 7 30.12 1020 5 8.0467 0.001 0.001
11:52 am 11:52 Cloudy with Mist and Fog 37 2.8 31 -0.6 79 79 NW 5 7 30.09 1019 5 8.0467 0.001 0.001
12:52 pm 12:52 Cloudy with Haze 39 3.9 31 -0.6 73 73 NW 7 11 30.09 1019 6 9.65604 0 0
1:52 pm 13:52 Cloudy with Haze 40 4.4 32 0 73 73 NW 10 17 30.08 1019 6 9.65604 0 0
2:44 pm 14:44 Cloudy 40 4.4 31 -0.6 70 70 WNW 9 15 30.11 1020 7 11.26538 0 0
2:52 pm 14:52 Cloudy 41 5 32 0 70 70 WNW 12 19 30.09 1019 7 11.26538 0 0
3:52 pm 15:52 Cloudy 41 5 31 -0.6 67 67 W 13 20 30.1 1019 8 12.87472 0 0
4:52 pm 16:52 Cloudy 40 4.4 28 -2.2 63 63 WNW 14 22 30.11 1020 10 16.0934 0 0
5:52 pm 17:52 Cloudy 38 3.3 27 -2.8 65 65 WNW 9 15 30.11 1020 10 16.0934 0 0
6:52 pm 18:52 Cloudy 36 2.2 26 -3.3 67 67 W 9 15 30.16 1021 10 16.0934 0 0
7:52 pm 19:52 Cloudy 37 2.8 27 -2.8 67 67 W 8 13 30.19 1022 10 16.0934 0 0
8:52 pm 20:52 Cloudy 37 2.8 27 -2.8 67 67 WNW 6 9 30.2 1023 10 16.0934 0 0
9:52 pm 21:52 Cloudy 36 2.2 27 -2.8 70 70 W 5 7 30.21 1023 10 16.0934 0 0
10:52 pm 22:52 Cloudy 34 1.1 27 -2.8 76 76 W 5 7 30.21 1023 10 16.0934 0 0
11:52 pm 23:52 Cloudy 34 1.1 26 -3.3 73 73 WNW 5 7 30.21 1023 10 16.0934 0 0

Powered by AerisWeather